Chehalis, WA
on Sunday, December 23, 2012

Sunday
Previous Day Next Day
Daily Summary
 ActualAverage (KOLM)Record (KOLM)
Temperature
Mean Temperature °F 38°F  
Max Temperature 41°F 44°F 59°F (1950)
Min Temperature 39°F 32°F -7°F (1983)
Degree Days
Heating Degree Days 25 27  
Month to date heating degree days 610  
Since 1 July heating degree days 2055  
Cooling Degree Days 0 0  
Month to date cooling degree days 0  
Year to date cooling degree days 106  
Moisture
Dew Point 38°F   
Average Humidity 92    
Maximum Humidity 100    
Minimum Humidity 87    
Precipitation
Precipitation 0.45 in 0.24 in 1.59 in (2005)
Month to date precipitation 5.62  
Year to date precipitation 48.16  
Wind
Wind Speed 7 mph   
Max Wind Speed 14 mph   
Max Gust Speed 24 mph   
Visibility 8 miles   
Events Rain   

Key: T is trace of precipitation, MM is missing value
Source: NWS Daily Summary
Time(PST)TemperatureDew PointHumidity Pressure Visibility Wind DirectionWind SpeedGust SpeedPrecipitationEvents Conditions
12:15 AM 41.0°F 37.4°F 87% 29.75 in 9.0 miles South 12.7 mph 18.4 mph N/A Rain Light Rain
12:35 AM 41.0°F 37.4°F 87% 29.75 in 9.0 miles South 11.5 mph 21.9 mph 0.02 in   Overcast
12:55 AM 41.0°F 39.2°F 93% 29.76 in 10.0 miles South 8.1 mph - 0.02 in   Overcast
1:15 AM 41.0°F 39.2°F 93% 29.75 in 10.0 miles South 6.9 mph - N/A   Overcast
1:35 AM 41.0°F 37.4°F 87% 29.75 in 10.0 miles South 9.2 mph - N/A   Overcast
1:55 AM 41.0°F 37.4°F 87% 29.76 in 8.0 miles South 12.7 mph 24.2 mph N/A   Overcast
2:15 AM 41.0°F 37.4°F 87% 29.76 in 10.0 miles South 13.8 mph 20.7 mph N/A   Overcast
2:35 AM 41.0°F 37.4°F 87% 29.76 in 8.0 miles South 10.4 mph - N/A   Overcast
2:55 AM 41.0°F 37.4°F 87% 29.76 in 10.0 miles South 12.7 mph 17.3 mph N/A   Overcast
3:15 AM 41.0°F 37.4°F 87% 29.76 in 9.0 miles South 9.2 mph - N/A Rain Light Rain
3:35 AM 41.0°F 37.4°F 87% 29.76 in 5.0 miles South 12.7 mph 18.4 mph N/A Rain Light Rain
3:55 AM 41.0°F 37.4°F 87% 29.76 in 10.0 miles South 12.7 mph 19.6 mph N/A Rain Light Rain
4:15 AM 41.0°F 37.4°F 87% 29.76 in 10.0 miles South 11.5 mph - N/A   Overcast
4:35 AM 41.0°F 39.2°F 93% 29.76 in 5.0 miles South 10.4 mph 19.6 mph 0.01 in   Overcast
4:55 AM 41.0°F 39.2°F 93% 29.75 in 10.0 miles South 6.9 mph - 0.02 in Rain Light Rain
5:15 AM 41.0°F 39.2°F 93% 29.75 in 10.0 miles South 9.2 mph - N/A   Overcast
5:35 AM 41.0°F 39.2°F 93% 29.75 in 6.0 miles South 9.2 mph - N/A   Overcast
5:55 AM 41.0°F 37.4°F 87% 29.74 in 10.0 miles South 10.4 mph 16.1 mph N/A   Overcast
6:15 AM 41.0°F 39.2°F 93% 29.74 in 6.0 miles South 8.1 mph - N/A   Overcast
6:35 AM 41.0°F 39.2°F 93% 29.74 in 4.0 miles South 9.2 mph - N/A Rain Light Rain
6:55 AM 41.0°F 37.4°F 87% 29.74 in 8.0 miles South 11.5 mph 17.3 mph 0.01 in Rain Light Rain
7:15 AM 41.0°F 37.4°F 87% 29.74 in 10.0 miles South 11.5 mph - N/A   Overcast
7:35 AM 41.0°F 37.4°F 87% 29.73 in 9.0 miles South 11.5 mph - N/A   Overcast
7:55 AM 39.2°F 37.4°F 93% 29.72 in 10.0 miles South 10.4 mph - N/A   Overcast
8:15 AM 39.2°F 37.4°F 93% 29.71 in 10.0 miles South 8.1 mph - N/A   Mostly Cloudy
8:35 AM 41.0°F 37.4°F 87% 29.72 in 10.0 miles South 6.9 mph - N/A   Mostly Cloudy
8:55 AM 41.0°F 37.4°F 87% 29.72 in 10.0 miles SSW 3.5 mph - N/A   Mostly Cloudy
9:15 AM 41.0°F 37.4°F 87% 29.72 in 10.0 miles South 6.9 mph - N/A   Overcast
9:35 AM 41.0°F 39.2°F 93% 29.71 in 10.0 miles SSW 5.8 mph - N/A   Mostly Cloudy
9:55 AM 41.0°F 39.2°F 93% 29.70 in 10.0 miles SSW 3.5 mph - N/A   Clear
10:15 AM 41.0°F 39.2°F 93% 29.70 in 5.0 miles SSW 3.5 mph - N/A   Clear
10:35 AM 41.0°F 39.2°F 93% 29.69 in 8.0 miles SSW 3.5 mph - N/A Rain Light Rain
10:55 AM 41.0°F 39.2°F 93% 29.68 in 5.0 miles South 3.5 mph - N/A   Partly Cloudy
11:15 AM 41.0°F 39.2°F 93% 29.67 in 5.0 miles Calm Calm - N/A   Scattered Clouds
11:35 AM 41.0°F 39.2°F 93% 29.67 in 5.0 miles Calm Calm - 0.01 in Rain Light Rain
11:55 AM 41.0°F 39.2°F 93% 29.67 in 3.0 miles Calm Calm - 0.01 in Rain Light Rain
12:15 PM 41.0°F 39.2°F 93% 29.66 in 3.0 miles Calm Calm - 0.02 in Rain Light Rain
12:35 PM 41.0°F 39.2°F 93% 29.66 in 4.0 miles Calm Calm - 0.04 in Rain Light Rain
12:55 PM 41.0°F 39.2°F 93% 29.65 in 6.0 miles Calm Calm - 0.05 in Rain Light Rain
1:15 PM 41.0°F 39.2°F 93% 29.65 in 4.0 miles Calm Calm - 0.01 in Rain Light Rain
1:35 PM 41.0°F 39.2°F 93% 29.64 in 3.0 miles Calm Calm - 0.01 in Rain Light Rain
1:55 PM 41.0°F 39.2°F 93% 29.64 in 4.0 miles Calm Calm - 0.02 in Rain Light Rain
2:15 PM 41.0°F 39.2°F 93% 29.64 in 5.0 miles Calm Calm - 0.01 in Rain Light Rain
2:35 PM 41.0°F 39.2°F 93% 29.64 in 7.0 miles Calm Calm - 0.02 in Rain Light Rain
2:55 PM 41.0°F 39.2°F 93% 29.64 in 7.0 miles Calm Calm - 0.03 in Rain Light Rain
3:15 PM 41.0°F 39.2°F 93% 29.64 in 5.0 miles NNE 3.5 mph - N/A Rain Light Rain
3:35 PM 41.0°F 39.2°F 93% 29.65 in 8.0 miles Calm Calm - 0.01 in Rain Light Rain
3:55 PM 41.0°F 39.2°F 93% 29.66 in 6.0 miles North 3.5 mph - 0.02 in Rain Light Rain
4:15 PM 41.0°F 39.2°F 93% 29.66 in 5.0 miles Calm Calm - 0.01 in Rain Light Rain
4:35 PM 41.0°F 39.2°F 93% 29.67 in 5.0 miles Calm Calm - 0.03 in Rain Light Rain
4:55 PM 41.0°F 39.2°F 93% 29.68 in 9.0 miles Calm Calm - 0.04 in Rain Light Rain
5:15 PM 41.0°F 39.2°F 93% 29.68 in 8.0 miles Calm Calm - N/A Rain Light Rain
5:35 PM 41.0°F 39.2°F 93% 29.69 in 5.0 miles Calm Calm - 0.03 in Rain Light Rain
5:55 PM 41.0°F 39.2°F 93% 29.70 in 5.0 miles Calm Calm - 0.05 in Rain Light Rain
6:15 PM 41.0°F 39.2°F 93% 29.70 in 5.0 miles Calm Calm - 0.03 in Rain Light Rain
6:35 PM 41.0°F 39.2°F 93% 29.71 in 9.0 miles Calm Calm - 0.03 in   Overcast
6:55 PM 41.0°F 39.2°F 93% 29.73 in 4.0 miles Calm Calm - 0.08 in Rain Light Rain
7:15 PM 39.2°F 39.2°F 100% 29.73 in 4.0 miles SE 3.5 mph - 0.06 in Rain Light Rain
7:35 PM 39.2°F 39.2°F 100% 29.75 in 9.0 miles SW 3.5 mph - 0.07 in Rain Light Rain
7:55 PM 39.2°F 39.2°F 100% 29.75 in 10.0 miles South 4.6 mph - 0.08 in Rain Light Rain
8:15 PM 39.2°F 37.4°F 93% 29.76 in 10.0 miles SSW 4.6 mph - N/A   Overcast
8:35 PM 39.2°F 37.4°F 93% 29.77 in 10.0 miles South 4.6 mph - N/A   Overcast
8:55 PM 39.2°F 37.4°F 93% 29.77 in 9.0 miles SSW 5.8 mph - N/A   Overcast
9:15 PM 39.2°F 37.4°F 93% 29.78 in 10.0 miles SSE 5.8 mph - N/A   Mostly Cloudy
9:35 PM 39.2°F 37.4°F 93% 29.79 in 10.0 miles South 4.6 mph - 0.01 in   Overcast
9:55 PM 39.2°F 37.4°F 93% 29.80 in 10.0 miles South 5.8 mph - 0.01 in   Overcast
10:15 PM 39.2°F 37.4°F 93% 29.81 in 8.0 miles South 8.1 mph - 0.01 in Rain Light Rain
10:35 PM 39.2°F 37.4°F 93% 29.83 in 8.0 miles South 6.9 mph - 0.01 in Rain Light Rain
10:55 PM 39.2°F 37.4°F 93% 29.83 in 10.0 miles SSE 6.9 mph - 0.01 in Rain Light Rain
11:15 PM 39.2°F 37.4°F 93% 29.84 in 9.0 miles SSW 4.6 mph - N/A   Overcast
11:35 PM 39.2°F 37.4°F 93% 29.85 in 10.0 miles SSE 5.8 mph - N/A   Overcast
11:55 PM 39.2°F 37.4°F 93% 29.86 in 7.0 miles South 8.1 mph - N/A   Overcast
Moon Phase
Dec. 23 Dec. 28 Jan. 04 Jan. 11 Jan. 18
Sunrise:07:54 AM (PST) Moon Rise:01:28 PM (PST)
Sunset:04:28 PM (PST) Moon Set:03:34 AM (PST)

Copyright © 2014 The Weather Underground, Inc.